TimeEET,TemperatureF,Dew PointF,Humidity,Sea Level PressureIn,VisibilityMPH,Wind Direction,Wind SpeedMPH,Gust SpeedMPH,PrecipitationIn,Events,Conditions,WindDirDegrees,DateUTC
12:20 AM,33.8,33.8,100,30.24,-9999.0,Variable,1.2,-,N/A,,Clear,0,2012-11-15 22:20:00
12:50 AM,35.6,33.8,93,30.24,-9999.0,NE,2.3,-,N/A,,Clear,40,2012-11-15 22:50:00
1:20 AM,33.8,33.8,100,30.24,-9999.0,Variable,1.2,-,N/A,,Clear,0,2012-11-15 23:20:00
1:50 AM,33.8,33.8,100,30.24,-9999.0,Variable,1.2,-,N/A,,Clear,0,2012-11-15 23:50:00
2:00 AM,35,33,89,30.29,12,East,1.2,,,,,80,2012-11-16 00:00:00
2:20 AM,32.0,32.0,100,30.24,-9999.0,WNW,1.2,-,N/A,,Clear,300,2012-11-16 00:20:00
2:50 AM,32.0,32.0,100,30.24,-9999.0,NW,1.2,-,N/A,,Clear,310,2012-11-16 00:50:00
3:20 AM,32.0,32.0,100,30.24,-9999.0,North,2.3,-,N/A,,Clear,360,2012-11-16 01:20:00
3:50 AM,32.0,32.0,100,30.24,-9999.0,NE,2.3,-,N/A,,Clear,40,2012-11-16 01:50:00
4:20 AM,32.0,30.2,93,30.24,-9999.0,Variable,1.2,-,N/A,,Clear,0,2012-11-16 02:20:00
4:50 AM,30.2,30.2,100,30.24,-9999.0,NNW,1.2,-,N/A,,Clear,330,2012-11-16 02:50:00
5:20 AM,30.2,30.2,100,30.24,-9999.0,North,1.2,-,N/A,,Clear,350,2012-11-16 03:20:00
5:50 AM,30.2,30.2,100,30.24,-9999.0,ENE,2.3,-,N/A,,Clear,60,2012-11-16 03:50:00
6:20 AM,30.2,30.2,100,30.24,3.7,NNE,1.2,-,N/A,,Unknown,20,2012-11-16 04:20:00
6:50 AM,28.4,28.4,100,30.24,3.7,WNW,1.2,-,N/A,,Unknown,290,2012-11-16 04:50:00
7:20 AM,30.2,30.2,100,30.27,3.7,North,1.2,-,N/A,,Unknown,10,2012-11-16 05:20:00
7:50 AM,30.2,30.2,100,30.27,3.7,South,1.2,-,N/A,,Unknown,180,2012-11-16 05:50:00
8:00 AM,31,31,99,30.36,4,Calm,Calm,,,,Mist,,2012-11-16 06:00:00
8:20 AM,32.0,32.0,100,30.27,3.7,South,2.3,-,N/A,,Unknown,180,2012-11-16 06:20:00
8:50 AM,33.8,33.8,100,30.27,1.0,Variable,2.3,-,N/A,Fog,Patches of Fog,0,2012-11-16 06:50:00
9:20 AM,37.4,35.6,93,30.27,-9999.0,Variable,2.3,-,N/A,,Scattered Clouds,0,2012-11-16 07:20:00
9:50 AM,41.0,37.4,87,30.27,6.2,Variable,2.3,-,N/A,,Partly Cloudy,0,2012-11-16 07:50:00
10:20 AM,42.8,37.4,81,30.27,6.2,Variable,2.3,-,N/A,,Partly Cloudy,0,2012-11-16 08:20:00
10:50 AM,46.4,39.2,76,30.27,6.2,Variable,2.3,-,N/A,,Partly Cloudy,0,2012-11-16 08:50:00
11:20 AM,50.0,39.2,66,30.24,6.2,Variable,1.2,-,N/A,,Partly Cloudy,0,2012-11-16 09:20:00
11:50 AM,51.8,41.0,67,30.24,6.2,Variable,2.3,-,N/A,,Partly Cloudy,0,2012-11-16 09:50:00
12:20 PM,53.6,41.0,62,30.24,6.2,SE,3.5,-,N/A,,Partly Cloudy,140,2012-11-16 10:20:00
12:50 PM,53.6,41.0,62,30.21,-9999.0,Variable,2.3,-,N/A,,Clear,0,2012-11-16 10:50:00
1:20 PM,55.4,41.0,58,30.21,-9999.0,Variable,3.5,-,N/A,,Clear,0,2012-11-16 11:20:00
1:50 PM,55.4,41.0,58,30.21,-9999.0,NW,4.6,-,N/A,,Clear,310,2012-11-16 11:50:00
2:00 PM,56,41,47,30.25,12,NW,4.6,,,,,310,2012-11-16 12:00:00
2:20 PM,57.2,41.0,55,30.21,-9999.0,Variable,2.3,-,N/A,,Clear,0,2012-11-16 12:20:00
2:50 PM,57.2,42.8,59,30.21,-9999.0,South,4.6,-,N/A,,Clear,190,2012-11-16 12:50:00
3:20 PM,55.4,42.8,63,30.21,-9999.0,SSW,6.9,-,N/A,,Clear,210,2012-11-16 13:20:00
3:50 PM,55.4,42.8,63,30.21,-9999.0,South,5.8,-,N/A,,Clear,190,2012-11-16 13:50:00
4:20 PM,53.6,42.8,67,30.21,5.0,South,4.6,-,N/A,,Unknown,180,2012-11-16 14:20:00
4:50 PM,51.8,42.8,71,30.21,3.7,SSE,4.6,-,N/A,,Unknown,160,2012-11-16 14:50:00
5:20 PM,50.0,42.8,76,30.21,3.7,South,5.8,-,N/A,,Unknown,170,2012-11-16 15:20:00
5:50 PM,48.2,42.8,82,30.21,3.7,South,5.8,-,N/A,,Unknown,180,2012-11-16 15:50:00
6:20 PM,46.4,42.8,87,30.24,3.7,South,4.6,-,N/A,,Unknown,170,2012-11-16 16:20:00
6:50 PM,46.4,42.8,87,30.24,3.7,SSE,4.6,-,N/A,,Unknown,150,2012-11-16 16:50:00
7:20 PM,46.4,41.0,81,30.24,3.7,SSE,3.5,-,N/A,,Unknown,160,2012-11-16 17:20:00
7:50 PM,44.6,41.0,87,30.24,3.7,ESE,4.6,-,N/A,,Unknown,120,2012-11-16 17:50:00
8:00 PM,45,40,78,30.33,4,ESE,4.6,,,,Mist,120,2012-11-16 18:00:00
8:20 PM,41.0,39.2,93,30.24,3.7,Variable,2.3,-,N/A,,Unknown,0,2012-11-16 18:20:00
8:50 PM,41.0,39.2,93,30.24,3.7,Variable,1.2,-,N/A,,Unknown,0,2012-11-16 18:50:00
9:20 PM,39.2,37.4,93,30.24,-9999.0,Variable,1.2,-,N/A,,Mist,0,2012-11-16 19:20:00
9:50 PM,41.0,39.2,93,30.24,-9999.0,Variable,1.2,-,N/A,,Mist,0,2012-11-16 19:50:00
10:20 PM,41.0,39.2,93,30.24,-9999.0,Variable,1.2,-,N/A,,Mist,0,2012-11-16 20:20:00
10:50 PM,37.4,35.6,93,30.24,-9999.0,NW,1.2,-,N/A,,Mist,310,2012-11-16 20:50:00
11:20 PM,37.4,37.4,100,30.24,2.5,Variable,2.3,-,N/A,,Mist,0,2012-11-16 21:20:00
11:50 PM,37.4,35.6,93,30.24,-9999.0,Variable,1.2,-,N/A,,Mist,0,2012-11-16 21:50:00